Theta_e
304 308 312 316 320 323 324 325 325 324 323 322 322 321 321 321 320 320 319 317 318 318
300 302 303 306 309 311 315 320 322 322 323 322 322 321 321 320 321 320 320 319 319 318
297 299 300 301 301 302 305 309 311 317 321 322 323 323 322 321 322 320 320 320 319 319
294 295 296 296 297 298 299 300 303 307 311 316 321 322 322 322 322 321 320 320 319 319
292 292 292 292 293 294 294 296 298 300 302 306 311 315 319 320 321 321 320 320 319 319
288 288 289 290 289 289 290 291 294 295 297 299 302 305 310 314 317 319 320 320 320 320
284 286 287 285 284 285 286 288 290 292 293 295 297 300 303 307 310 313 316 319 320 320
283 284 281 281 281 282 283 284 286 288 290 292 293 296 298 298 299 301 304 309 315 318
280 278 278 278 278 279 279 281 283 285 287 287 290 292 292 293 294 296 297 300 306 311
275 275 275 276 276 276 277 279 281 283 284 284 286 290 291 290 291 292 294 296 299 303
273 273 273 274 274 274 276 277 277 279 280 281 284 288 289 289 289 290 292 293 295 297
271 271 271 271 272 273 273 273 275 277 279 280 282 286 288 288 288 288 288 290 292 293
270 270 270 271 271 271 272 274 275 274 275 277 278 283 286 288 287 287 287 289 290 289
269 269 270 270 270 270 270 271 271 272 273 275 278 280 284 287 286 286 287 287 288 290
Wind_Speed
11 6 5 5 4 5 6 6 8 9 11 12 13 12 12 11 12 13 13 17 14 12
10 10 8 8 8 7 8 7 7 7 10 12 13 13 13 11 13 13 14 14 15 14
11 11 11 10 11 11 10 11 11 11 9 10 11 12 13 12 12 14 12 11 14 14
11 11 10 10 11 12 12 12 13 12 12 11 10 11 12 13 13 15 14 15 14 17
12 12 13 13 13 13 13 13 13 13 12 11 12 12 12 12 11 13 14 15 16 18
14 13 13 13 14 14 14 13 12 13 12 12 12 13 12 13 14 14 15 15 16 16
14 14 13 14 14 14 14 14 14 14 14 13 13 13 12 13 15 15 15 15 15 16
14 13 15 14 14 14 13 13 14 15 14 13 12 10 13 14 15 16 17 17 17 16
13 15 14 15 16 16 15 15 14 13 14 16 11 20 22 18 15 16 16 16 16 17
14 15 15 15 16 16 16 16 16 15 16 17 17 23 24 24 15 17 17 16 17 17
13 15 15 16 16 16 16 17 17 17 17 17 14 25 28 28 20 17 18 18 18 18
13 13 14 15 15 15 15 15 15 15 18 19 18 27 28 26 20 18 19 17 18 18
14 13 12 13 14 14 14 16 15 18 17 19 20 28 29 25 15 19 16 18 18 19
11 11 10 11 11 12 13 14 13 15 15 17 16 19 32 30 16 16 17 16 16 14
Wind_Direction
15 16 355 344 337 304 283 268 243 234 229 231 234 234 234 237 235 233 234 234 232 235
25 17 11 359 7 358 340 327 297 259 243 236 237 238 238 235 239 236 234 232 232 235
18 13 10 3 13 4 347 341 337 323 287 257 250 248 244 246 245 244 241 238 235 232
15 10 11 7 5 355 346 349 341 331 318 313 286 262 255 256 253 246 243 242 238 237
11 6 4 4 358 352 346 346 333 325 323 323 317 311 292 271 256 256 256 249 239 243
8 4 1 356 348 346 340 331 325 324 321 324 318 316 306 297 289 271 258 255 255 250
1 358 356 346 343 340 335 328 329 326 323 318 313 308 305 311 308 297 283 272 259 258
353 355 344 338 339 335 334 331 328 320 317 317 315 311 323 316 308 303 298 290 284 269
355 342 341 338 334 334 334 333 329 320 320 320 315 317 316 312 308 301 293 291 285 277
347 339 338 334 332 333 332 326 325 324 324 319 315 316 315 316 307 302 293 290 288 284
345 338 334 334 334 331 329 329 325 321 320 314 310 313 314 313 306 300 294 290 290 289
338 328 335 330 327 325 323 322 318 316 316 314 312 310 308 310 307 297 295 293 292 289
337 334 327 324 327 323 322 321 323 322 310 309 313 313 311 307 303 298 298 295 293 287
331 326 329 326 323 327 327 326 319 316 320 319 320 321 321 321 315 304 300 296 297 296